Hourly Weather Roundup
Issued by NWS Central Illinois

Home | Current Version | Previous Version | Text Only | Print | Product List | Glossary On
Versions: 1 2 3 4 5 6 7 8 9 10 11 12 13 14 15 16 17 18 19 20 21 22 23 24 25 26 27 28 29 30 31 32 33 34 35 36 37 38 39 40 41 42 43 44 45 46 47 48 49 50
000
NZUS43 KILX 251810
HWRILX

AREA WEATHER ROUNDUP
NATIONAL WEATHER SERVICE, LINCOLN IL
1200 PM CST SUN JAN 25 2015


CITY           SKY/WX    TMP DP  RH WIND       PRES   REMARKS
BLOOMINGTON    LGT SNOW  33  33 100 NE18      29.67S FOG     WCI  22
6HR MIN TEMP:  33; 6HR MAX TEMP:  35; 6HR PCP:  0.15;

CHAMPAIGN      LGT RAIN  38  36  92 NE13      29.62F FOG     WCI  30
6HR MIN TEMP:  34; 6HR MAX TEMP:  38; 6HR PCP:  0.07;

DECATUR        CLOUDY    38  35  89 NE12      29.62F WCI  30
6HR MIN TEMP:  37; 6HR MAX TEMP:  41; 6HR PCP:  0.05;

FLORA          RAIN      41  40  97 S5        29.59F
6HR MIN TEMP:  38; 6HR MAX TEMP:  41; 6HR PCP:  0.03;

GALESBURG      LGT SNOW  31  29  94 NE22G31   29.74R WCI  18
JACKSONVILLE   CLOUDY    40  37  89 NE15      29.64R WCI  31
6HR MIN TEMP:  38; 6HR MAX TEMP:  45; 6HR PCP:  0.05;

LACON          LGT SNOW  32  31  95 NE12G21   29.73R WCI  23
6HR MIN TEMP:  32; 6HR MAX TEMP:  34; 6HR PCP:  0.04;

LAWRENCEVILLE  CLOUDY    40  38  93 SE7       29.61F
6HR MIN TEMP:  37; 6HR MAX TEMP:  41; 6HR PCP:  0.06;

LITCHFIELD     DRIZZLE   42  40  94 N7        29.58F
$$


CITY           SKY/WX    TMP DP  RH WIND       PRES   REMARKS
LINCOLN        CLOUDY    37  36  95 NE16      29.66R WCI  27
6HR MIN TEMP:  35; 6HR MAX TEMP:  37; 6HR PCP:  0.17;

MACOMB         LGT RAIN  33  33  99 NE22      29.73R WCI  21
MATTOON        CLOUDY    39  39 100 SE3       29.59F FOG
6HR MIN TEMP:  36; 6HR MAX TEMP:  39; 6HR PCP:  0.04;

MT CARMEL AP   DRIZZLE   43  37  81 SE6       29.60F
OLNEY-NOBLE AP LGT RAIN  39  37  93 CALM      29.60F
PARIS          DRIZZLE   38  38  98 CALM      29.62F
6HR MIN TEMP:  35; 6HR MAX TEMP:  38; 6HR PCP:  0.02;

PEORIA         LGT SNOW  35  32  88 NE10G21   29.70R FOG     WCI  27
6HR MIN TEMP:  35; 6HR MAX TEMP:  37; 6HR PCP:  0.12;

PONTIAC        LGT SNOW  34  34  98 NE18G24   29.71R WCI  23
RANTOUL        LGT RAIN  36  35  96 NE13      29.65S WCI  28
6HR MIN TEMP:  35; 6HR MAX TEMP:  37;

ROBINSON       DRIZZLE   39  38  97 CALM      29.63F
6HR MIN TEMP:  37; 6HR MAX TEMP:  39; 6HR PCP:  0.06;

SPRINGFIELD    CLOUDY    39  35  86 NE13      29.64R WCI  31
6HR MIN TEMP:  39; 6HR MAX TEMP:  42; 6HR PCP:  0.13;

TAYLORVILLE    CLOUDY    37  36  93 NE12      29.61S WCI  30
$$

...REGIONAL REPORTS...


CITY           SKY/WX    TMP DP  RH WIND       PRES   REMARKS
CHICAGO O`HARE LGT SNOW  30  26  85 NE17G32   29.80R FOG     WCI  18
KANKAKEE       LGT RAIN  33  33  98 NE9G16    29.72S WCI  25
MOLINE         LGT SNOW  30  27  88 NE14G21   29.80R FOG     WCI  19
MOUNT VERNON   CLOUDY    43  37  81 S6        29.59F
PITTSFIELD     DRIZZLE   40  38  93 NE12G17   29.64R WCI  33
QUINCY         CLOUDY    37  34  89 NE20G25   29.66R FOG     WCI  27
ROCKFORD       CLOUDY    28  19  69 NE21G30   29.86S WCI  15
$$


CITY           SKY/WX    TMP DP  RH WIND       PRES   REMARKS
BURLINGTON     LGT SNOW  32  31  96 NE21G28   29.75R FOG     WCI  20
CEDAR RAPIDS   MIX PCPN  28  24  85 NE21      29.85R WCI  15
DES MOINES     CLOUDY    34  30  85 NE16      29.90R WCI  24
KIRKSVILLE     CLOUDY    35  33  92 N22G28    29.73R WCI  23
OTTUMWA        FLURRIES  31  30  96 NE20G30   29.82R WCI  19
ST LOUIS       LGT RAIN  47  43  86 W9        29.59S FOG
$$


CITY           SKY/WX    TMP DP  RH WIND       PRES   REMARKS
TERRE HAUTE    CLOUDY    38  36  92 SE6       29.63F FOG     WCI  33
EVANSVILLE     LGT RAIN  42  39  89 SE6       29.62F
INDIANAPOLIS   CLOUDY    35  32  88 E8        29.64F WCI  29
LAFAYETTE      LGT SNOW  33  32  96 NE9       29.67F FOG     WCI  25
MADISON        CLOUDY    25  16  68 NE22      29.92S WCI  10
MILWAUKEE      PTSUNNY   26  14  60 NE21      29.91F WCI  12
$$





USA.gov is the U.S. government's official web portal to all federal, state and local government web resources and services.